Washington, NC

1:35 PM EDT on April 26, 2018 (GMT -0400)
Warren

Weather History for KOCW - April, 2013

Change the Weather History Date:

Sunday, April 14, 2013

  Actual Average (KPGV) Record (KPGV)
Temperature  
Mean Temperature 64 °F -  
Max Temperature 79 °F 72 °F 89 °F (1971)
Min Temperature 49 °F 48 °F 31 °F (1939)
Degree Days  
Heating Degree Days 1    
Growing Degree Days 14 (Base 50)    
Moisture  
Dew Point 36 °F    
Average Humidity 50    
Maximum Humidity 82    
Minimum Humidity 4    
Precipitation  
Precipitation 0.00 in - - ()
Sea Level Pressure  
Sea Level Pressure 30.08 in    
Wind  
Wind Speed 3 mph (SSE)    
Max Wind Speed 10 mph    
Max Gust Speed -    
Visibility 9 miles    
Events      
Averages and records for this station are not official NWS values.
T = Trace of Precipitation, MM = Missing Value Source: NWS Daily Summary

Daily Weather History Graph

Daily Weather History Graph

Search for Another Location

Airport or City:

Astronomy

Apr. 14, 2013 Rise Set
Actual Time 6:36 AM EDT 7:40 PM EDT
Civil Twilight 6:10 AM EDT 8:06 PM EDT
Nautical Twilight 5:39 AM EDT 8:38 PM EDT
Astronomical Twilight 5:07 AM EDT 9:10 PM EDT
Moon 9:17 AM EDT (4/14) 11:46 PM EDT (4/14)
Length of Visible Light 13h 56m
Length of Day
13h 04m
Waxing Crescent, 17% of the Moon is Illuminated
Apr 14
Waxing Crescent
Apr 18
First Quarter
Apr 25
Full
May 2
Last Quarter
May 9
New

Hourly Weather History & Observations

Time (EDT) Temp. Dew Point Humidity Pressure Visibility Wind Dir Wind Speed Gust Speed Precip Events Conditions
12:15 AM 55.4 °F 47.7 °F 75% 30.04 in 10.0 mi South 4.6 mph - N/A   Clear
12:35 AM 54.0 °F 46.8 °F 77% 30.04 in 10.0 mi SSE 3.5 mph - N/A   Clear
12:55 AM 54.0 °F 46.9 °F 77% 30.03 in 10.0 mi South 3.5 mph - N/A   Clear
1:15 AM 54.1 °F 47.3 °F 78% 30.03 in 10.0 mi SSW 3.5 mph - N/A   Clear
1:35 AM 54.0 °F 47.1 °F 78% 30.04 in 10.0 mi SW 3.5 mph - N/A   Clear
1:55 AM 53.1 °F 46.4 °F 78% 30.04 in 10.0 mi SSW 3.5 mph - N/A   Clear
2:15 AM 52.7 °F 46.6 °F 80% 30.04 in 10.0 mi Calm Calm - N/A   Clear
2:35 AM 52.7 °F 47.1 °F 81% 30.03 in 10.0 mi Calm Calm - N/A   Clear
2:55 AM 52.7 °F 47.3 °F 82% 30.03 in 10.0 mi SW 4.6 mph - N/A   Clear
3:15 AM 52.7 °F 47.3 °F 82% 30.03 in 10.0 mi SSW 4.6 mph - N/A   Clear
3:35 AM 52.7 °F 47.3 °F 82% 30.04 in 10.0 mi SSW 3.5 mph - N/A   Clear
3:55 AM 52.7 °F 47.3 °F 82% 30.04 in 10.0 mi SW 3.5 mph - N/A   Clear
4:15 AM 51.4 °F 46.0 °F 82% 30.05 in 10.0 mi Calm Calm - N/A   Clear
4:35 AM 51.6 °F 46.2 °F 82% 30.05 in 10.0 mi WSW 3.5 mph - N/A   Clear
4:55 AM 52.5 °F 47.1 °F 82% 30.05 in 10.0 mi Calm Calm - N/A   Clear
5:15 AM 52.0 °F 46.4 °F 81% 30.05 in 10.0 mi SW 3.5 mph - N/A   Clear
5:35 AM 51.3 °F 45.7 °F 81% 30.05 in 7.0 mi WSW 3.5 mph - N/A   Clear
5:55 AM 51.4 °F 45.9 °F 81% 30.06 in 7.0 mi Calm Calm - N/A   Clear
6:15 AM 50.2 °F 44.6 °F 81% 30.06 in 5.0 mi Calm Calm - N/A   Haze
6:35 AM 50.2 °F 44.6 °F 81% 30.06 in 4.0 mi Calm Calm - N/A   Haze
6:55 AM 50.2 °F 44.6 °F 81% 30.07 in 1.5 mi Calm Calm - N/A   Haze
7:15 AM 49.6 °F 44.1 °F 81% 30.08 in 2.0 mi Calm Calm - N/A   Haze
7:35 AM 50.2 °F 44.6 °F 81% 30.09 in 4.0 mi Calm Calm - N/A   Haze
7:55 AM 52.7 °F 46.9 °F 81% 30.10 in 5.0 mi Calm Calm - N/A   Haze
8:15 AM 54.1 °F 48.2 °F 80% 30.11 in 7.0 mi Calm Calm - N/A   Clear
8:35 AM 58.1 °F 52.0 °F 80% 30.11 in 10.0 mi Calm Calm - N/A   Clear
8:55 AM 58.1 °F 52.0 °F 80% 30.11 in 10.0 mi Calm Calm - N/A   Clear
9:15 AM 60.4 °F 53.6 °F 78% 30.11 in 10.0 mi Calm Calm - N/A   Clear
9:35 AM 61.7 °F 53.2 °F 74% 30.11 in 10.0 mi Calm Calm - N/A   Clear
9:55 AM 63.7 °F 54.0 °F 71% 30.11 in 10.0 mi Calm Calm - N/A   Clear
10:15 AM 66.0 °F 52.7 °F 62% 30.11 in 10.0 mi Calm Calm - N/A   Clear
10:35 AM 69.4 °F 42.6 °F 38% 30.11 in 10.0 mi Calm Calm - N/A   Clear
10:55 AM 73.0 °F 36.5 °F 26% 30.12 in 10.0 mi NE 5.8 mph - N/A   Clear
11:15 AM 73.0 °F 32.5 °F 23% 30.12 in 10.0 mi NNE 3.5 mph - N/A   Clear
11:35 AM 73.0 °F 28.4 °F 19% 30.12 in 10.0 mi Calm Calm - N/A   Clear
11:55 AM 73.0 °F 29.5 °F 20% 30.12 in 10.0 mi Calm Calm - N/A   Clear
12:15 PM 73.4 °F 30.6 °F 21% 30.12 in 10.0 mi Calm Calm - N/A   Clear
12:35 PM 73.9 °F 27.5 °F 18% 30.11 in 10.0 mi Calm Calm - N/A   Clear
12:55 PM 76.8 °F 22.6 °F 13% 30.10 in 10.0 mi Calm Calm - N/A   Clear
1:15 PM 78.1 °F 22.1 °F 12% 30.10 in 10.0 mi Calm Calm - N/A   Clear
1:35 PM 78.1 °F 19.4 °F 11% 30.10 in 10.0 mi Calm Calm - N/A   Clear
1:55 PM 78.1 °F 10.4 °F 8% 30.09 in 10.0 mi Calm Calm - N/A   Clear
2:15 PM 78.1 °F -1.3 °F 4% 30.09 in 10.0 mi South 3.5 mph - N/A   Clear
2:35 PM 78.1 °F 7.5 °F 7% 30.09 in 10.0 mi Calm Calm - N/A   Clear
2:55 PM 78.8 °F 4.6 °F 6% 30.08 in 10.0 mi Calm Calm - N/A   Clear
3:15 PM 78.8 °F 1.4 °F 5% 30.07 in 10.0 mi Calm Calm - N/A   Clear
3:35 PM 79.0 °F 2.3 °F 5% 30.06 in 10.0 mi Calm Calm - N/A   Clear
3:55 PM 78.8 °F -4.7 °F 4% 30.06 in 10.0 mi SSE 3.5 mph - N/A   Clear
4:15 PM 78.3 °F -4.2 °F 4% 30.05 in 10.0 mi SW 3.5 mph - N/A   Clear
4:55 PM 78.1 °F -2.4 °F 4% 30.05 in 10.0 mi Calm Calm - N/A   Clear
5:15 PM 78.8 °F -3.8 °F 4% 30.06 in 10.0 mi SE 4.6 mph - N/A   Clear
5:35 PM 78.1 °F 1.2 °F 5% 30.06 in 10.0 mi SSE 4.6 mph - N/A   Clear
5:55 PM 78.1 °F 26.8 °F 15% 30.07 in 10.0 mi SE 10.4 mph - N/A   Clear
6:15 PM 75.6 °F 27.3 °F 17% 30.07 in 10.0 mi SE 8.1 mph - N/A   Clear
6:35 PM 74.3 °F 27.1 °F 17% 30.08 in 10.0 mi SE 9.2 mph - N/A   Clear
7:15 PM 73.0 °F 33.8 °F 24% 30.10 in 10.0 mi SE 6.9 mph - N/A   Clear
7:35 PM 73.0 °F 36.9 °F 27% 30.10 in 10.0 mi SSE 4.6 mph - N/A   Clear
7:55 PM 73.0 °F 36.3 °F 26% 30.11 in 10.0 mi SSE 5.8 mph - N/A   Clear
8:15 PM 70.5 °F 39.7 °F 33% 30.11 in 10.0 mi SE 4.6 mph - N/A   Clear
8:35 PM 68.0 °F 38.7 °F 34% 30.11 in 10.0 mi SE 4.6 mph - N/A   Clear
8:55 PM 67.1 °F 40.1 °F 37% 30.12 in 10.0 mi SE 4.6 mph - N/A   Clear
9:15 PM 66.0 °F 41.4 °F 41% 30.11 in 10.0 mi East 3.5 mph - N/A   Clear
9:35 PM 65.5 °F 45.0 °F 47% 30.12 in 10.0 mi East 4.6 mph - N/A   Clear
10:15 PM 64.4 °F 54.3 °F 70% 30.10 in 10.0 mi East 5.8 mph - N/A   Clear
10:35 PM 64.4 °F 54.9 °F 71% 30.09 in 10.0 mi East 5.8 mph - N/A   Clear
10:55 PM 63.5 °F 55.0 °F 74% 30.08 in 10.0 mi East 6.9 mph - N/A   Clear
11:15 PM 63.0 °F 54.7 °F 74% 30.08 in 10.0 mi East 5.8 mph - N/A   Clear
11:35 PM 63.0 °F 54.5 °F 74% 30.09 in 10.0 mi SE 5.8 mph - N/A   Clear
11:55 PM 63.0 °F 54.5 °F 74% 30.11 in 10.0 mi ESE 4.6 mph - N/A   Clear